CAPE
57 85 49 10 49 25 33 45 47 120 203 132 28 99 73 22 3 9 2 57 30 34 39 67 11 0 0 0 0 0 0 0 0 0 0 0 0 0 0 0 0 0 0 0 0 0 0
54 80 49 53 6 0 0 41 125 225 156 67 2 73 48 66 39 42 12 53 34 19 41 60 10 0 0 0 0 0 0 0 0 0 0 0 0 0 0 0 0 0 0 0 0 0 0
78 125 67 44 12 0 0 89 118 209 132 64 2 20 13 12 13 3 0 45 29 4 19 60 5 0 0 0 0 0 0 0 0 0 0 0 0 0 0 0 0 0 0 0 0 0 0
89 138 112 88 15 0 20 136 57 152 105 67 22 22 5 12 2 1 0 36 29 25 27 53 1 0 0 0 0 0 0 0 0 0 0 0 0 0 0 0 0 0 0 0 0 0 0
110 149 174 112 3 0 104 124 62 78 3 0 1 29 3 0 0 0 20 14 14 55 56 29 0 0 0 0 0 0 0 0 0 0 0 0 0 0 0 0 0 0 0 0 0 0 0
133 150 185 61 0 0 74 65 83 41 1 34 9 24 1 0 0 3 36 27 33 81 137 3 5 2 0 0 0 0 0 0 0 0 0 0 0 1 0 0 0 0 0 0 0 0 0
141 151 105 21 0 2 1 25 27 10 20 10 23 10 0 0 0 1 61 22 99 167 176 0 1 0 0 0 0 0 0 0 0 0 0 0 0 0 0 0 0 0 0 0 0 0 0
145 150 168 24 0 1 1 42 28 14 32 3 13 6 0 0 1 2 34 22 0 4 34 0 1 0 0 0 0 0 0 0 0 0 0 0 0 0 0 0 0 0 0 0 0 0 0
130 139 80 16 0 2 0 14 20 9 0 0 9 13 10 0 13 3 35 22 0 1 1 4 0 0 0 0 0 0 0 0 0 0 0 0 0 0 0 0 0 0 0 0 0 0 0
102 138 57 24 0 0 0 1 22 9 0 0 4 11 4 6 5 3 28 4 0 0 0 0 3 0 0 0 0 0 0 0 0 0 0 0 0 0 0 0 0 0 0 0 0 0 0
94 144 0 23 0 0 0 0 16 3 1 0 0 1 13 10 0 31 46 0 0 0 0 0 1 0 0 0 0 0 0 0 0 0 0 0 0 0 0 0 0 0 0 0 0 0 0
72 171 2 17 0 0 1 10 8 7 5 1 0 8 28 1 9 0 2 0 0 1 0 0 3 0 0 0 0 0 0 0 0 0 0 0 0 0 0 0 0 0 0 0 0 0 0
101 147 66 12 0 0 0 2 10 8 6 8 5 23 18 2 1 0 1 1 3 0 0 0 0 2 1 1 0 0 0 0 0 0 0 0 0 0 0 0 0 0 0 0 0 0 0
168 0 2 5 0 0 0 4 22 11 1 5 13 25 36 0 2 1 2 1 0 0 1 1 0 1 0 0 0 2 0 0 0 0 0 0 0 0 0 0 0 0 0 0 0 0 0
96 89 0 18 0 0 0 1 16 1 0 1 16 20 26 5 1 11 0 0 0 1 0 1 2 0 0 0 0 0 0 0 0 0 0 2 0 0 0 0 0 0 1 0 0 0 0
122 26 3 31 9 1 0 0 0 0 0 10 10 15 21 1 30 10 0 0 0 0 0 0 0 0 0 1 0 1 1 0 0 0 0 0 0 0 0 0 0 0 0 0 0 0 0
43 7 7 0 45 7 12 14 0 0 0 3 33 3 0 15 4 0 0 0 0 0 0 0 0 0 0 0 0 0 0 0 0 0 0 0 0 0 0 0 0 0 0 0 0 0 0
72 56 28 2 42 48 24 23 0 0 0 0 26 0 0 0 0 0 0 1 0 0 0 0 0 0 0 0 0 0 0 0 0 0 0 0 0 0 0 0 0 0 0 0 0 0 0
69 9 2 8 45 57 13 3 0 0 1 0 4 1 0 0 0 0 1 0 0 0 0 0 0 0 0 0 0 0 0 0 0 0 0 0 0 0 0 0 0 0 0 0 0 0 0
32 24 0 32 31 75 11 1 0 1 0 0 0 0 0 10 0 0 0 1 0 0 0 0 0 0 0 0 0 0 0 0 0 0 0 0 0 0 0 0 0 0 0 0 0 0 0
73 17 14 59 110 57 30 0 0 0 0 0 0 0 0 1 0 0 0 0 0 0 0 0 0 0 0 0 0 0 0 0 0 0 0 0 0 0 0 0 0 0 0 0 0 0 0
65 75 28 110 61 70 39 0 0 0 0 0 0 0 0 0 0 0 0 0 0 0 0 0 0 0 0 0 0 0 0 0 0 0 0 0 0 0 0 0 0 0 0 0 0 0 0
59 62 53 57 47 82 30 5 0 0 0 0 1 0 0 0 0 0 0 0 0 0 0 0 0 0 0 0 0 0 0 0 0 0 0 0 0 0 0 0 0 0 0 0 0 0 0
67 27 19 21 54 53 41 12 0 0 0 0 0 0 0 0 0 0 0 0 0 0 0 0 0 0 0 0 0 0 0 0 0 0 0 0 0 0 0 0 0 0 0 0 0 0 0
57 33 12 0 6 14 17 13 0 0 0 0 0 0 0 0 1 0 0 0 0 0 0 0 0 0 0 0 0 0 0 0 0 0 0 0 0 0 0 0 0 0 0 0 0 0 0
61 63 8 12 0 3 10 11 0 0 0 0 0 0 0 0 1 2 0 0 1 0 0 0 0 0 0 0 0 0 0 0 0 0 0 0 0 0 0 0 0 0 0 0 0 0 0
70 72 27 14 8 0 9 12 0 0 0 0 0 0 0 0 1 0 0 0 0 0 0 0 0 0 0 0 0 0 0 0 0 0 0 0 0 0 0 0 0 0 0 0 0 0 0
32 21 70 19 17 0 4 15 0 0 0 0 0 0 0 0 0 1 1 1 1 0 0 0 0 0 0 0 0 0 0 0 0 0 0 0 0 0 0 0 0 0 0 0 0 0 0
0 2 66 43 9 14 14 1 0 0 0 0 0 0 0 0 0 0 2 2 2 1 0 0 0 0 0 0 0 0 0 0 0 0 0 0 0 0 0 0 0 0 0 0 0 0 0
CIN
-1 -0 -0 -0 -1 -37 -24 -10 -15 -10 -2 -9 -33 -1 -6 -0 -1 -25 -2 -0 -3 -6 -15 -13 -36 -0 -0 -0 -0 -0 -0 -0 -0 -0 -0 -0 -0 -0 -0 -0 -0 -0 -0 -0 -0 -0 -0
-0 -0 -1 -0 -0 -0 -0 -7 -1 -2 -13 -31 -68 -0 -37 -34 -3 -6 -7 -0 -3 -8 -72 -15 -26 -0 -0 -0 -0 -0 -0 -0 -0 -0 -0 -0 -0 -0 -0 -0 -0 -0 -0 -0 -0 -0 -0
-0 -1 -0 -0 -1 -0 -0 -0 -7 -5 -15 -28 -42 -4 -11 -5 -8 -33 -0 -0 -9 -11 -71 -15 -41 -0 -0 -0 -0 -0 -0 -0 -0 -0 -0 -0 -0 -0 -0 -0 -0 -0 -0 -0 -0 -0 -0
-1 -0 -1 -1 -1 -0 -48 -0 -10 -6 -13 -24 -10 -7 -1 -4 -3 -0 -6 -3 -11 -44 -61 -17 -71 -0 -0 -0 -0 -0 -0 -0 -0 -6 -0 -0 -0 -0 -0 -0 -0 -0 -0 -0 -0 -0 -0
-6 -0 -1 -2 -0 -0 -1 -1 -9 -11 -11 -0 -0 -0 -0 -0 -0 -0 -0 -10 -20 -23 -30 -18 -2 -0 -0 -0 -0 -0 -0 -0 -0 -0 -0 -0 -0 -0 -0 -0 -0 -0 -0 -0 -0 -0 -0
-1 -2 -0 -1 -0 -0 -7 -5 -7 -9 -5 -22 -39 -4 -0 -0 -0 -5 -0 -5 -12 -7 -1 -0 -2 -3 -0 -0 -0 -0 -0 -0 -0 -0 -0 -0 -0 -0 -0 -0 -0 -0 -0 -0 -0 -0 -0
-2 -0 -1 -0 -0 -0 -0 -28 -10 -10 -10 -58 -17 -25 -0 -0 -0 -0 -0 -1 -0 -0 -0 -0 -2 -0 -0 -0 -0 -0 -0 -0 -0 -0 -0 -0 -0 -0 -0 -0 -0 -0 -0 -0 -0 -0 -0
-1 -1 -0 -1 -0 -0 -0 -27 -0 -3 -3 -51 -27 -7 -0 -0 -1 -0 -0 -0 -0 -6 -13 -0 -1 -0 -0 -0 -0 -0 -0 -0 -0 -0 -0 -0 -0 -0 -0 -0 -0 -0 -2 -0 -0 -0 -0
-0 -4 -0 -1 -0 -0 -0 -0 -0 -1 -0 -0 -53 -0 -11 -0 -1 -0 -0 -1 -0 -28 -1 -5 -0 -0 -0 -0 -0 -0 -0 -0 -0 -0 -0 -0 -0 -0 -0 -0 -0 -0 -0 -0 -0 -0 -0
-5 -0 -1 -0 -0 -0 -0 -0 -1 -0 -0 -0 -77 -9 -1 -3 -3 -1 -0 -28 -0 -0 -0 -0 -0 -0 -0 -0 -0 -0 -0 -0 -0 -0 -0 -0 -0 -0 -0 -0 -0 -0 -0 -0 -0 -0 -0
-13 -1 -0 -0 -0 -0 -0 -0 -1 -3 -7 -0 -0 -13 -0 -3 -0 -0 -0 -0 -0 -0 -0 -0 -0 -0 -0 -0 -0 -0 -0 -0 -0 -0 -0 -0 -0 -0 -0 -0 -0 -0 -0 -0 -0 -0 -0
-1 -0 -0 -1 -0 -0 -0 -0 -0 -5 -5 -1 -0 -5 -4 -0 -9 -0 -14 -0 -0 -1 -0 -0 -0 -0 -0 -0 -0 -0 -0 -0 -0 -0 -0 -0 -0 -0 -0 -0 -0 -0 -0 -0 -0 -0 -0
-8 -0 -0 -0 -0 -0 -0 -0 -0 -4 -3 -2 -3 -5 -1 -5 -1 -0 -0 -0 -3 -0 -0 -0 -0 -0 -0 -0 -0 -0 -0 -0 -0 -0 -0 -0 -0 -0 -0 -0 -0 -0 -0 -0 -0 -0 -0
-0 -0 -2 -7 -0 -0 -0 -1 -0 -3 -10 -1 -1 -5 -29 -0 -16 -1 -0 -0 -0 -0 -0 -0 -0 -0 -0 -0 -0 -0 -0 -0 -0 -0 -0 -0 -0 -0 -0 -0 -0 -0 -0 -0 -0 -0 -0
-2 -0 -0 -1 -0 -0 -0 -0 -0 -6 -0 -8 -1 -3 -1 -5 -1 -5 -0 -0 -0 -0 -0 -0 -0 -0 -0 -0 -0 -0 -0 -0 -0 -0 -0 -0 -0 -0 -0 -0 -0 -0 -0 -0 -0 -0 -0
-0 -1 -4 -0 -7 -0 -0 -0 -0 -0 -0 -3 -6 -2 -0 -0 -1 -0 -0 -0 -0 -0 -0 -0 -0 -0 -0 -0 -0 -0 -0 -0 -0 -0 -0 -0 -0 -0 -0 -0 -0 -0 -0 -0 -0 -0 -0
-1 -0 -1 -0 -0 -0 -0 -0 -0 -0 -2 -29 -72 -1 -0 -1 -1 -0 -0 -0 -0 -0 -0 -0 -0 -0 -0 -0 -0 -0 -0 -0 -0 -0 -0 -0 -0 -0 -0 -0 -0 -0 -0 -0 -0 -0 -0
-0 -0 -0 -6 -0 -0 -0 -0 -0 -0 -0 -0 -100 -0 -0 -0 -0 -0 -0 -0 -0 -0 -0 -0 -0 -0 -0 -0 -0 -0 -0 -0 -0 -0 -0 -0 -0 -0 -0 -0 -0 -0 -0 -0 -0 -0 -0
-0 -1 -3 -1 -0 -1 -0 -0 -0 -0 -3 -0 -8 -10 -0 -0 -0 -0 -0 -0 -0 -0 -0 -0 -0 -0 -0 -0 -0 -0 -0 -0 -0 -0 -0 -0 -0 -0 -0 -0 -0 -0 -0 -0 -0 -0 -0
-5 -0 -2 -0 -0 -0 -2 -0 -0 -0 -1 -0 -0 -0 -0 -3 -0 -0 -0 -0 -0 -0 -0 -0 -0 -0 -0 -0 -0 -0 -0 -0 -0 -0 -0 -0 -0 -0 -0 -0 -0 -0 -0 -0 -0 -0 -0
-0 -5 -2 -4 -0 -0 -0 -0 -0 -0 -0 -0 -0 -0 -0 -1 -0 -0 -0 -0 -0 -0 -0 -0 -0 -0 -0 -0 -0 -0 -0 -0 -0 -0 -0 -0 -0 -0 -0 -0 -0 -0 -0 -0 -0 -0 -0
-0 -0 -2 -0 -2 -0 -0 -0 -0 -0 -0 -0 -0 -0 -0 -0 -0 -0 -0 -0 -0 -0 -0 -0 -0 -0 -0 -0 -0 -0 -0 -0 -0 -0 -0 -0 -0 -0 -0 -0 -0 -0 -0 -0 -0 -0 -0
-1 -0 -2 -1 -5 -0 -0 -0 -0 -0 -0 -0 -0 -0 -0 -0 -0 -0 -0 -0 -0 -0 -0 -0 -0 -0 -0 -0 -0 -0 -0 -0 -0 -0 -0 -0 -0 -0 -0 -0 -0 -0 -0 -0 -0 -0 -0
-1 -0 -0 -11 -0 -0 -0 -0 -0 -0 -0 -0 -0 -0 -0 -0 -0 -0 -0 -0 -0 -0 -0 -0 -0 -0 -0 -0 -0 -0 -0 -0 -0 -0 -0 -0 -0 -0 -0 -0 -0 -0 -0 -0 -0 -0 -0
-0 -0 -0 -0 -4 -1 -1 -0 -0 -0 -0 -0 -0 -0 -0 -0 -0 -0 -0 -0 -0 -0 -0 -0 -0 -0 -0 -0 -0 -0 -0 -0 -0 -0 -0 -0 -0 -0 -0 -0 -0 -0 -0 -0 -0 -0 -0
-0 -0 -1 -0 -1 -0 -0 -0 -0 -0 -0 -0 -0 -0 -0 -0 -0 -0 -0 -0 -0 -0 -0 -0 -0 -0 -0 -0 -0 -0 -0 -0 -0 -0 -0 -0 -0 -0 -0 -0 -0 -0 -0 -0 -0 -0 -0
-0 -0 -0 -1 -0 -0 -0 -0 -0 -0 -0 -0 -0 -0 -0 -0 -0 -0 -0 -0 -0 -0 -0 -0 -0 -0 -0 -0 -0 -0 -0 -0 -0 -0 -0 -0 -0 -0 -0 -0 -0 -0 -0 -0 -0 -0 -0
-1 -3 -3 -19 -1 -0 -0 -0 -0 -0 -0 -0 -0 -0 -0 -0 -0 -0 -0 -0 -0 -0 -0 -0 -0 -0 -0 -0 -0 -0 -0 -0 -0 -0 -0 -0 -0 -0 -0 -0 -0 -0 -0 -0 -0 -0 -0
-0 -1 -2 -12 -0 -1 -1 -0 -0 -0 -0 -0 -0 -0 -0 -0 -0 -0 -0 -0 -0 -0 -0 -0 -0 -0 -0 -0 -0 -0 -0 -0 -0 -0 -0 -0 -0 -0 -0 -0 -0 -0 -0 -0 -0 -0 -0
Wind_Speed
23 20 18 17 20 26 30 36 42 43 43 41 38 44 49 48 48 46 50 48 38 35 36 34 32 28 28 37 36 22 22 21 19 20 23 22 23 22 20 19 17 21 16 22 20 23 23
24 19 19 17 21 26 31 36 40 42 40 37 35 41 48 49 44 50 42 43 40 34 36 34 31 29 33 44 25 17 20 20 20 21 22 24 25 23 20 19 20 18 12 20 24 25 23
26 22 23 22 23 29 32 34 36 35 33 30 30 35 44 46 43 48 46 45 41 33 35 33 31 31 36 36 23 18 19 22 20 22 22 22 21 24 17 18 18 17 18 24 19 20 22
35 32 26 25 26 29 31 32 31 25 23 28 29 31 38 47 40 46 50 43 37 35 35 33 31 30 36 26 20 21 21 22 20 19 21 18 17 19 22 14 19 22 22 23 19 19 24
39 39 31 25 25 27 29 29 27 30 31 28 26 29 34 39 43 43 51 44 39 32 34 33 32 31 35 22 28 24 21 26 23 19 19 18 20 24 21 19 20 23 23 21 23 19 27
37 41 35 25 24 26 27 26 23 25 28 27 27 29 32 36 35 47 41 41 35 35 35 31 34 30 31 39 28 25 21 20 23 19 21 22 24 28 27 26 29 26 24 23 22 20 23
36 42 39 20 20 24 26 22 19 23 26 27 24 27 29 34 35 39 44 42 41 41 43 44 40 36 31 26 24 28 24 22 21 27 28 30 34 39 31 27 27 25 24 27 23 23 26
37 39 38 16 19 22 25 25 23 25 26 25 26 26 27 33 36 39 45 47 45 38 44 34 33 30 25 28 30 31 26 28 31 34 29 32 38 30 26 25 25 24 25 28 27 22 24
37 38 37 24 17 19 26 28 28 29 28 25 24 27 29 31 31 37 48 43 41 33 32 35 36 29 30 30 31 33 31 26 32 34 34 36 34 25 25 25 25 26 28 23 25 24 28
37 36 33 17 16 18 24 29 28 29 30 27 27 25 28 28 33 38 47 40 40 35 37 41 38 33 32 26 28 29 28 23 29 35 29 30 25 27 28 30 26 30 22 20 23 24 31
35 31 25 19 18 19 23 27 25 28 31 29 29 27 25 29 30 43 43 41 44 39 49 38 38 28 31 34 30 32 29 27 33 31 30 32 29 27 31 31 25 28 23 25 26 28 30
32 27 18 12 17 17 19 19 24 24 28 29 29 29 29 30 33 37 38 45 39 50 46 33 34 36 34 35 33 32 28 21 22 26 28 27 22 25 28 24 24 18 20 23 25 29 38
26 20 25 11 14 14 19 20 22 24 25 25 29 30 29 32 40 31 43 47 50 55 34 33 41 39 38 34 31 36 35 33 34 39 40 31 30 26 22 24 20 24 24 30 33 33 39
26 24 33 15 13 14 16 20 20 21 23 21 28 28 30 33 32 28 44 53 55 46 39 29 37 36 37 33 32 33 33 36 28 26 32 38 40 32 26 28 31 27 27 31 36 37 36
26 24 24 13 13 14 16 18 20 20 21 23 27 29 28 29 33 28 37 56 51 42 37 33 36 41 36 36 34 34 37 38 32 28 32 34 34 24 22 21 18 26 33 23 31 30 35
22 21 25 16 15 14 13 13 17 19 20 22 29 27 27 26 27 30 42 51 39 38 40 39 39 38 39 39 42 40 37 36 33 30 24 23 31 23 20 18 22 24 19 31 32 39 42
20 21 21 22 14 13 14 16 14 17 18 20 27 28 26 24 24 33 48 49 38 35 42 43 41 36 40 38 35 38 37 26 28 27 21 19 23 25 20 29 27 22 25 26 25 33 38
19 17 13 20 16 15 13 12 13 13 14 20 27 32 26 24 32 36 42 39 40 40 39 36 38 35 36 33 31 34 34 27 26 26 25 19 17 26 29 22 26 26 24 23 33 36 35
15 14 18 21 16 11 10 11 11 12 14 21 28 27 23 24 39 39 34 35 38 42 41 38 39 34 33 34 30 37 32 33 25 31 27 24 23 26 25 27 25 29 25 25 24 24 32
16 15 14 16 11 8 6 9 11 11 12 16 26 30 27 27 31 33 36 36 41 38 34 31 31 26 28 33 32 37 34 30 35 33 29 26 28 30 34 33 26 33 31 30 31 33 33
16 14 14 10 11 8 7 7 10 10 10 16 26 30 30 35 39 38 35 34 45 43 35 32 32 34 33 33 38 36 34 32 32 33 31 29 37 35 33 29 27 29 29 29 31 32 34
15 15 13 14 12 10 6 4 8 11 10 17 28 30 29 29 32 37 35 37 43 43 37 42 38 36 34 34 36 34 31 35 38 34 33 32 35 33 35 31 30 32 31 31 32 31 33
14 12 12 9 13 9 6 4 5 9 13 17 19 20 27 29 34 37 40 35 41 36 37 38 32 32 35 34 30 25 23 23 24 31 32 33 32 31 39 29 31 40 33 31 32 35 33
15 12 12 11 11 7 6 5 6 10 13 14 16 18 27 32 34 37 32 35 45 41 38 37 33 33 31 15 13 15 19 22 21 26 28 31 31 31 35 30 43 45 32 34 34 36 36
18 13 10 11 14 10 6 5 7 8 11 12 12 18 25 30 31 31 32 36 36 40 36 35 33 27 21 21 21 24 27 26 30 28 30 30 29 34 37 38 42 45 32 25 29 44 35
11 12 10 12 11 10 10 6 5 6 8 9 11 12 20 25 28 25 31 33 35 37 37 34 29 28 28 26 27 31 33 31 32 30 27 27 28 32 32 42 50 27 27 21 19 52 30
10 13 10 9 10 11 9 6 6 7 9 9 10 12 15 22 22 22 30 34 28 33 36 33 33 35 30 32 34 33 34 28 33 34 33 30 31 38 38 37 42 30 19 13 23 36 22
5 12 11 6 7 12 10 8 5 6 8 9 9 12 13 21 18 18 22 28 29 32 40 33 32 35 33 35 36 33 34 34 32 29 32 32 31 36 37 44 49 20 15 23 26 22 22
8 10 12 8 6 7 8 9 9 9 9 10 8 9 8 13 15 13 14 17 21 24 28 34 36 35 33 36 36 31 29 29 31 35 30 35 34 33 32 37 27 22 26 23 24 23 22
Wind_Direction
274 270 271 272 275 275 276 271 260 257 258 257 256 241 236 235 235 236 236 222 215 212 211 211 212 210 213 227 235 255 217 223 226 227 230 232 230 239 244 251 249 255 255 261 266 267 263
273 263 268 266 272 273 272 267 260 257 257 257 254 242 236 229 231 230 233 215 212 208 206 208 208 206 220 228 241 242 212 215 223 227 228 233 238 244 247 250 248 262 267 260 259 265 268
271 263 265 264 268 268 266 267 261 260 259 254 254 245 239 233 231 228 232 212 210 203 201 204 204 210 224 228 236 225 213 222 225 231 230 238 240 241 242 248 254 265 259 258 266 265 268
265 261 259 260 264 264 265 262 260 261 258 252 251 249 243 232 233 232 227 208 205 201 195 199 199 212 228 234 224 218 220 221 227 233 236 238 240 243 247 248 255 254 259 260 273 270 264
258 254 254 254 259 262 264 259 259 255 248 254 261 251 241 233 233 229 215 204 203 194 191 194 199 216 228 222 220 217 216 219 224 229 237 235 241 240 242 238 249 251 261 261 270 279 258
256 250 250 249 254 257 259 258 258 255 245 249 259 252 240 232 237 221 202 197 199 196 196 201 209 216 229 217 214 212 219 204 219 212 224 230 238 236 237 240 247 249 260 263 266 274 266
254 246 245 228 244 251 251 256 259 251 247 249 260 248 239 231 228 224 198 193 196 202 203 216 210 222 212 204 201 212 202 211 214 224 228 230 236 236 237 245 251 254 256 258 269 270 271
248 246 243 236 241 246 250 251 254 249 244 248 249 246 240 234 232 223 199 199 184 192 198 221 207 225 204 192 208 206 204 219 219 221 228 234 236 240 243 243 246 246 253 258 266 270 274
243 244 243 237 232 240 247 247 249 244 244 246 246 239 235 235 233 220 201 200 195 195 204 214 205 204 191 191 206 203 204 221 219 224 228 233 242 240 236 238 239 251 252 256 264 273 273
241 244 243 219 232 239 245 243 245 246 245 245 238 238 231 225 228 218 201 196 194 198 212 215 212 213 203 199 210 205 209 215 228 223 227 239 242 232 236 239 239 250 254 260 266 271 271
241 243 238 234 233 238 244 243 243 245 242 244 234 236 235 226 224 206 197 192 196 204 218 211 210 214 203 200 194 209 217 230 222 223 233 237 232 232 235 239 243 254 253 261 266 270 274
240 239 221 193 229 236 240 240 244 246 243 242 237 229 223 222 219 205 198 188 193 207 223 219 215 207 197 210 203 203 212 227 227 224 237 239 245 241 245 241 247 245 254 266 269 270 268
239 231 225 204 225 230 237 242 242 244 243 242 232 226 225 217 214 218 201 191 205 215 215 214 204 200 194 199 202 199 207 215 223 222 227 236 237 244 238 233 241 247 244 259 263 262 266
236 233 230 212 223 229 233 239 239 242 241 241 227 226 226 222 219 221 200 201 210 210 212 210 195 195 209 196 206 200 201 216 225 228 226 230 237 235 238 235 244 240 248 257 260 263 269
233 231 241 208 217 226 231 236 239 243 243 239 226 224 226 225 220 221 211 205 209 201 203 194 191 198 205 210 208 211 213 215 223 227 232 234 242 238 233 239 227 245 251 262 266 273 272
230 234 225 225 213 221 229 233 240 242 243 238 223 223 225 224 220 217 213 209 213 207 199 185 197 206 203 206 207 213 213 220 223 225 239 240 242 241 237 232 251 250 241 256 261 264 268
229 229 233 232 211 218 229 238 244 245 245 238 222 222 226 221 221 217 215 211 211 202 197 202 203 203 208 202 209 206 206 228 217 211 232 230 246 241 235 243 237 242 246 259 266 265 268
229 230 238 228 214 216 225 229 242 249 248 236 221 220 224 220 214 218 213 210 207 203 202 214 216 219 209 195 212 214 216 231 210 202 215 235 248 242 233 257 253 246 254 245 260 263 265
232 228 224 219 215 197 217 232 244 251 246 232 218 219 223 224 215 215 217 211 205 198 206 213 217 225 213 208 225 228 230 232 212 212 213 226 245 244 247 258 257 246 249 244 264 274 265
228 222 220 223 196 186 208 238 250 252 250 245 226 219 222 225 221 218 215 211 205 208 212 216 212 209 201 217 231 227 229 230 227 225 230 228 245 243 247 255 251 252 247 250 251 262 265
228 226 221 212 203 199 215 238 252 253 252 250 227 222 222 219 218 220 219 218 205 207 218 213 217 215 216 224 225 233 232 232 229 229 233 238 243 247 254 259 256 254 250 246 247 253 260
228 226 219 217 212 214 220 259 259 257 260 252 224 219 222 224 220 215 215 213 207 211 214 216 217 211 217 224 224 227 226 230 228 229 229 238 247 247 252 256 258 259 255 251 246 248 259
227 223 216 221 218 214 217 245 276 266 267 254 246 241 225 224 218 215 218 219 211 216 224 221 214 210 223 230 229 234 236 233 235 225 228 236 243 246 250 257 261 261 245 246 252 252 252
228 225 228 228 219 218 225 254 282 280 277 264 256 243 226 221 218 217 222 222 220 221 225 221 219 221 227 215 222 236 241 240 236 234 232 233 239 249 254 253 256 264 261 254 257 263 262
226 225 231 231 232 233 238 270 279 283 281 268 268 248 232 222 220 221 224 221 222 222 224 220 223 230 202 216 222 230 236 236 238 240 238 240 235 247 248 251 262 260 264 257 261 269 269
224 217 230 225 226 238 244 267 305 310 308 281 277 277 242 220 225 228 223 223 220 219 219 223 224 213 221 221 227 228 230 232 234 238 245 240 237 243 249 250 251 275 263 262 280 247 276
212 213 217 233 230 235 242 263 294 313 316 284 280 282 256 226 232 232 226 223 227 221 219 220 216 218 226 223 226 231 235 237 238 236 237 237 239 240 247 255 258 270 269 244 264 276 306
199 213 218 223 239 230 244 246 274 292 301 288 286 289 269 230 237 243 238 230 228 225 220 219 214 226 224 222 227 233 239 238 243 242 239 238 237 244 248 252 258 267 256 264 282 290 291
216 224 220 217 239 239 247 249 257 264 275 279 281 286 311 249 236 255 248 247 241 238 231 222 229 220 228 227 233 235 242 240 242 247 249 244 243 246 246 256 276 265 274 280 283 286 283